Preview of NWS' New Version of Forecast
This preview is not operational and should not be used for support decisions.
Latest weather observations around

Gainesville, Gainesville Regional Airport (KGNV)

Using English Units (Switch to International System of Units)
Date/ Time (EDT) Wind (mph) Vis. (mi) Weather Sky Cond. Temp (°F) Rel. Humidity Wind Chill (°F) Heat Index (°F) Pressure Precip. (in)
Air Dwpt 6 hour Altimeter (inHg) Sea level (inHg) 1 hr 3 hr 6 hr
Max Min
May 19 21:53 E 3 10 Mostly Cloudy SCT039 BKN075 80 67     64%   82 30.06 30.04      
May 19 20:53 E 3 10 Clear CLR 81 65     58%   83 30.02 30.01      
May 19 19:53 S 3 10 Clear CLR 87 58     37%   86 30 29.99      
May 19 18:53 SSE 5 10 Clear CLR 89 56     33%   87 30 29.99      
May 19 17:53 S 6 10 Clear CLR 91 57     32%   90 30 29.99      
May 19 16:53 S 8 10 Clear CLR 92 59     33%   91 30.01 30      
May 19 15:53 E 10 10 Partly Cloudy SCT070 90 59     35%   89 30.03 30.02      
May 19 14:53 5 10 Clear CLR 91 59     34%   90 30.05 30.04      
May 19 13:53 SW 7 10 Clear CLR 91 57     32%   90 30.07 30.06      
May 19 12:53 SW 9 10 Clear CLR 88 62     42%   88 30.08 30.07      
May 19 11:53   10 Clear CLR 86 62     45%   87 30.09 30.08      
May 19 10:53 3 10 Clear CLR 84 63     49%   85 30.09 30.08      
May 19 09:53 3 10 Clear CLR 79 66     65%   80 30.09 30.08      
May 19 08:53 ESE 6 10 Clear CLR 75 66     74%   76 30.09 30.08      
May 19 07:53 Calm 10 Clear CLR 67 62     84%     30.08 30.07      
May 19 06:53 Calm 10 Clear CLR 59 55     87%     30.07 30.06      
May 19 06:40 Calm 10 Clear CLR 60 56     86%     30.07        
May 19 05:53 Calm 10 Clear CLR 60 56     86%     30.06 30.05      
May 19 04:53 Calm 10 Clear CLR 62 57     84%     30.05 30.04      
May 19 03:53 Calm 10 Clear CLR 64 59     84%     30.05 30.04      
May 19 02:53 NE 3 10 Clear CLR 64 59     84%     30.06 30.04      
May 19 01:53 Calm 10 Clear CLR 65 59     81%     30.06 30.05      
May 19 00:53 Calm 10 Clear CLR 68 60     76%     30.07 30.06      
May 18 23:53 E 3 10 Clear CLR 72 61     68%   72 30.07 30.06      
May 18 22:53 E 7 10 Clear CLR 74 60     62%   74 30.05 30.04      
May 18 21:53 E 6 10 Clear CLR 77 60     56%   77 30.04 30.03      
May 18 20:53 ESE 7 10 Clear CLR 79 60     52%   79 30.02 30.01      
May 18 19:53 ESE 10 10 Clear CLR 84 61     46%   84 30 29.99      
May 18 18:53 ESE 9 10 Clear CLR 89 60     38%   89 29.99 29.98      
May 18 17:53 ESE 11 10 Clear CLR 91 60     36%   91 29.99 29.98      
May 18 16:53 ESE 10 10 Mostly Clear FEW070 92 61     36%   92 29.99 29.98      
May 18 15:53 SE 6 10 Mostly Clear FEW065 FEW085 92 62     37%   93 30.01 30      
May 18 14:53 E 9 10 Partly Cloudy SCT070 91 63     39%   92 30.03 30.02      
May 18 13:53 NNE 8 10 Partly Cloudy SCT065 90 62     40%   90 30.05 30.04      
May 18 12:53 Calm 10 Clear CLR 87 62     43%   88 30.07 30.06      
May 18 11:53 Calm 10 Clear CLR 87 61     42%   87 30.08 30.07      
May 18 10:53 3 10 Clear CLR 84 61     46%   84 30.1 30.09      
May 18 09:53 SW 3 10 Clear CLR 80 61     52%   81 30.1 30.09      
May 18 08:53 S 5 10 Mostly Clear FEW080 77 64     64%   77 30.1 30.09      
May 18 07:53 Calm 10 Clear CLR 71 63     76%   71 30.08 30.07      
May 18 06:53 Calm 10 Mostly Clear FEW070 65 60     84%     30.07 30.06      
May 18 06:36 Calm 10 Clear CLR 65 60     84%     30.07        
May 18 05:53 Calm 10 Clear CLR 65 60     84%     30.05 30.04      
May 18 04:53 Calm 10 Clear CLR 67 60     79%     30.04 30.03      
May 18 03:53 Calm 10 Clear CLR 69 60     73%     30.04 30.03      
May 18 02:53 Calm 10 Clear CLR 69 60     73%     30.05 30.04      
May 18 01:53 SSE 3 10 Clear CLR 74 59     60%   74 30.05 30.04      
May 18 00:53 SE 6 10 Mostly Clear FEW055 74 60     62%   74 30.06 30.05      
May 17 23:53 SE 6 10 Mostly Clear FEW047 77 61     58%   77 30.07 30.06      
May 17 22:53 NE 3 10 Mostly Cloudy BKN050 75 65     71%   76 30.05 30.04      
May 17 21:53 ESE 3 10 Clear CLR 76 64     67%   76 30.04 30.03      
May 17 20:53 NW 8 10 Partly Cloudy SCT080 81 65     58%   83 30.02 30.01      
May 17 19:53 S 3 10 Clear CLR 83 60     46%   83 30.01 30      
May 17 18:53 SSE 7 10 Clear CLR 87 58     37%   86 30 29.99      
May 17 17:53 SSE 8 10 Clear CLR 89 58     35%   88 29.99 29.98      
May 17 16:56 SE 5 10 Clear CLR 91 55     30%   89 29.99        
May 17 16:53   10 Clear CLR 91 56     31%   89 29.99 29.98      
May 17 15:53 SSE 9 10 Clear CLR 91 58     33%   90 30.01 30      
May 17 14:53 ESE 8 10 Mostly Clear FEW065 91 61     37%   91 30.03 30.03      
May 17 13:53 SSE 6 10 Partly Cloudy SCT060 SCT075 89 62     41%   90 30.06 30.05      
May 17 12:53 Calm 10 Mostly Clear FEW060 88 62     42%   88 30.08 30.06      
May 17 11:53 Calm 10 Clear CLR 86 62     45%   87 30.09 30.08      
May 17 10:53 S 8 10 Clear CLR 84 61     46%   84 30.11 30.09      
May 17 09:53 5 10 Clear CLR 81 60     49%   82 30.11 30.1      
May 17 08:53 S 5 10 Clear CLR 76 63     64%   76 30.09 30.08      
May 17 07:53 S 5 10 Clear CLR 71 64     79%   72 30.07 30.06      
May 17 06:53 Calm 10 Clear CLR 66 61     84%     30.06 30.05      
May 17 05:53 Calm 10 Clear CLR 67 61     81%     30.05 30.03      
May 17 04:53 Calm 10 Clear CLR 68 61     78%     30.05 30.04      
May 17 03:53 Calm 10 Clear CLR 68 61     78%     30.04 30.03      
May 17 02:53 Calm 10 Clear CLR 70 62     76%     30.05 30.04      
May 17 01:53 S 3 10 Clear CLR 72 62     71%   72 30.06 30.05      
May 17 00:53 SSE 3 10 Clear CLR 73 62     68%   73 30.06 30.05      
May 16 23:53 SSE 7 10 Clear CLR 75 62     64%   75 30.06 30.05      
May 16 22:53 SE 6 10 Clear CLR 76 63     64%   76 30.06 30.05      
May 16 21:53 SE 8 10 Clear   77 64     64%   77 30.04 30.03      
May 15 09:53 SE 7 10 Cloudy BKN009 OVC016 75 71     88%   76 30 29.99 0    
May 15 08:53 SE 11 10 Cloudy BKN007 OVC011 75 71     88%   76 29.99 29.98      
May 15 05:20 SE 7 10 Cloudy BKN010 OVC027 72 69     91%   73 29.95        
May 15 03:53 ESE 9 10 Cloudy SCT008 OVC021 72 68     87%   73 29.95 29.94 0    
May 15 02:51 SE 14 1.75 Heavy Rain and Fog/Mist BKN008 OVC017 72 68     88%   73 29.95   0    
May 14 17:25 NE 10 10 Light Rain SCT011 SCT017 BKN047 75 70     84%   76 29.97   0    
May 14 15:56 ENE 9 6 Light Rain and Fog/Mist FEW008 OVC016 73 69     87%   74 30   0    
May 14 11:53 E 8 10 Mostly Cloudy BKN016 BKN024 BKN032 77 69     77%   78 30.06 30.05      
May 14 07:40 E 5 6 Light Rain and Fog/Mist BKN010 BKN060 OVC095 71 68     90%   72 30.06   0    
May 13 15:53 E 10 10 Clear CLR 85 64     50%   86 30.07 30.07      
May 13 08:53 Calm 10 Clear CLR 74 66     76%   75 30.14 30.13      
May 12 08:53 SE 5 10 Clear CLR 75 66     74%   76 30.15 30.14      
May 11 21:53 SE 3 10 Clear CLR 79 63     58%   79 30.1 30.09      
Jun 12 01:53 Calm 10 Mostly Cloudy SCT003 BKN110 72 71     97%   73 30.14 30.13     0
Jun 11 21:53 Calm 10 Clear   72 70     93%   73 30.14 30.14      
Jun 11 18:49   1.75 Thunderstorms and Heavy Rain and Fog/Mist FEW009 FEW013 OVC022 72 70     94%   73 30.17   0    
Jun 11 17:16   2 Mostly Cloudy BKN027 BKN043 BKN100 76 73     91%   77 30.13   0    
Notice The following observation data may not be complete
Jun 10 18:05   10 Cloudy FEW026 BKN060 OVC100          %              
Jun 10 17:53 E 8 10 Cloudy FEW026 SCT060 OVC100 81 72     74%   85 30.06 30.05      
Jun 09 23:53 E 3 10 Partly Cloudy SCT055 71 65     81%   72 30.02 30.01      
Jun 09 09:53 E 10 10 Mostly Clear FEW080 75 65     71%   76 29.97 29.97      
Jun 08 09:53 N 9 10 Cloudy OVC008 70 67     90%     29.81 29.8      
Jun 07 18:08 N 6 0.25 Heavy Rain and Fog BKN016 OVC120 71 70     96%   72 29.69   1    
Notice The following observation data may not be complete
Jun 07 17:05   10 Cloudy BKN015 BKN042 OVC060          %              
Jun 07 14:53 SSE 3 10 Mostly Cloudy BKN005 74 72     94%   75 29.71 29.7 0    
Jun 07 12:53 E 7 8 Light Rain SCT028 BKN065 OVC095 71 69     93%   72 29.74 29.74 0    
Jun 07 12:21 7 10 Clear   75 73     94%   77 29.76        
Jun 07 11:53 SSE 7 10 Mostly Clear FEW004 75 73     94%   77 29.74 29.73 0    
Jun 07 09:53 E 3 10 Cloudy SCT017 BKN026 OVC070 75 73     94%   77 29.72 29.71 0    
Jun 07 08:53 ESE 6 10 Cloudy BKN016 BKN037 OVC050 71 70     96%   72 29.73 29.72 0    
Jun 06 16:22 WNW 8 1.25 Heavy Rain and Fog/Mist FEW004 BKN022 OVC030 71 70     96%   72 29.79   0    
Jun 06 15:36 NNE 5 0.75 Heavy Rain and Fog/Mist SCT004 BKN019 OVC036 72 70     93%   73 29.77   0    
Jun 06 15:19 E 5 10 Light Rain SCT003 BKN036 OVC050 72 70     93%   73 29.77   0    
Jun 06 12:32   1 Thunderstorms and Heavy Rain and Fog/Mist SCT009 BKN016 OVC040 72 71     97%   73 29.81   1    
Notice The following observation data may not be complete
Jun 06 12:18   1.75 Heavy Rain and Fog/Mist FEW006 BKN020 OVC035          %         0